STARLINK-2330 (47874 NORAD) Tracking and Keplerian Element Data

This shows tracking and keplerian element data for the satellite.

Feedback or suggestion? Click here.




ElementValue
Catalog47874
NameSTARLINK-2330
Epoch Orbit177
Epoch Day170.58334491
Epoch Year2021
RAAN95.144
Inclination53.0492
Eccentricity0.0002264
Argument of Perigee18.2779
Mean Anonmoly22.7995
Mean Motion15.73186931
Decay Rate0.00049469
L11 47874U 21021Q 21170.58334491 .00049469 00000-0 35493-3 0 9993
L22 47874 53.0492 95.1440 0002264 18.2779 22.7995 15.73186931 1779

Live tracking and technical data element details for STARLINK-2330 (NORAD 47874). STARLINK-2330 can be tracked NOW for your location showing map with azimuth and elevation plus other details from your city location.

Track the satellite on the map from your city or location and see movement details for azimuth, elevation, latitude, longitude, range, height, and movement on the map or in text.







IsCatalogInMostPopularTable: catalog: 47874, numindb: 42
Update: records affected: 1



GetName: 47874 STARLINK-2330

Hit Count: updated at: Mon, 21 Jun 2021 03:01:37 GMT